Time,TemperatureF,DewpointF,PressureIn,WindDirection,WindDirectionDegrees,WindSpeedMPH,WindSpeedGustMPH,Humidity,HourlyPrecipIn,Conditions,Clouds,dailyrainin,SolarRadiationWatts/m^2,SoftwareType,DateUTC
2013-02-12 00:00:00,40.1,38.2,29.63,West,277,1.0,2.0,93,0.00,,,0.17,0,Wunderground v.1.15,2013-02-12 05:00:00,
2013-02-12 00:01:00,40.1,38.2,29.63,West,277,2.0,2.0,93,0.00,,,0.00,0,Wunderground v.1.15,2013-02-12 05:01:00,
2013-02-12 00:08:00,39.9,38.0,29.63,West,275,2.0,4.0,93,0.00,,,0.00,0,Wunderground v.1.15,2013-02-12 05:08:00,
2013-02-12 00:13:00,39.7,37.8,29.63,WNW,289,2.0,2.0,93,0.00,,,0.00,0,Wunderground v.1.15,2013-02-12 05:13:00,
2013-02-12 00:19:00,39.7,37.8,29.64,WNW,286,2.0,5.0,93,0.00,,,0.00,0,Wunderground v.1.15,2013-02-12 05:19:00,
2013-02-12 00:26:00,39.6,37.7,29.63,WNW,286,1.0,3.0,93,0.00,,,0.00,0,Wunderground v.1.15,2013-02-12 05:26:00,
2013-02-12 00:32:00,39.5,37.6,29.63,West,261,2.0,2.0,93,0.00,,,0.00,0,Wunderground v.1.15,2013-02-12 05:32:00,
2013-02-12 00:40:00,39.2,37.3,29.63,West,271,3.0,3.0,93,0.00,,,0.00,0,Wunderground v.1.15,2013-02-12 05:40:00,
2013-02-12 00:46:00,39.1,37.2,29.63,West,276,3.0,3.0,93,0.00,,,0.00,0,Wunderground v.1.15,2013-02-12 05:46:00,
2013-02-12 00:51:00,39.0,37.1,29.63,WNW,297,3.0,3.0,93,0.00,,,0.00,0,Wunderground v.1.15,2013-02-12 05:51:00,
2013-02-12 00:56:00,38.8,36.9,29.63,NW,304,2.0,3.0,93,0.00,,,0.00,0,Wunderground v.1.15,2013-02-12 05:56:00,
2013-02-12 01:03:00,38.7,36.9,29.63,West,277,2.0,2.0,93,0.00,,,0.00,0,Wunderground v.1.15,2013-02-12 06:03:00,
2013-02-12 01:12:00,38.4,36.6,29.62,West,266,1.0,1.0,93,0.00,,,0.00,0,Wunderground v.1.15,2013-02-12 06:12:00,
2013-02-12 01:20:00,38.3,36.5,29.62,West,266,1.0,1.0,93,0.00,,,0.00,0,Wunderground v.1.15,2013-02-12 06:20:00,
2013-02-12 01:25:00,38.1,36.3,29.63,West,266,1.0,1.0,93,0.00,,,0.00,0,Wunderground v.1.15,2013-02-12 06:25:00,
2013-02-12 01:31:00,37.9,36.1,29.63,West,281,2.0,2.0,93,0.00,,,0.00,0,Wunderground v.1.15,2013-02-12 06:31:00,
2013-02-12 01:37:00,37.7,35.9,29.63,West,273,0.0,3.0,93,0.00,,,0.00,0,Wunderground v.1.15,2013-02-12 06:37:00,
2013-02-12 01:42:00,37.5,35.7,29.64,WSW,257,3.0,4.0,93,0.00,,,0.00,0,Wunderground v.1.15,2013-02-12 06:42:00,
2013-02-12 01:51:00,37.3,35.5,29.64,WSW,252,0.0,2.0,93,0.00,,,0.00,0,Wunderground v.1.15,2013-02-12 06:51:00,
2013-02-12 01:57:00,37.0,35.2,29.64,WSW,245,2.0,2.0,93,0.00,,,0.00,0,Wunderground v.1.15,2013-02-12 06:57:00,
2013-02-12 02:03:00,36.8,35.0,29.64,NW,306,3.0,3.0,93,0.00,,,0.00,0,Wunderground v.1.15,2013-02-12 07:03:00,
2013-02-12 02:08:00,36.7,34.6,29.64,SW,229,2.0,5.0,92,0.00,,,0.00,0,Wunderground v.1.15,2013-02-12 07:08:00,
2013-02-12 02:13:00,36.5,34.7,29.64,NW,321,3.0,5.0,93,0.00,,,0.00,0,Wunderground v.1.15,2013-02-12 07:13:00,
2013-02-12 02:18:00,36.3,34.5,29.64,West,278,4.0,6.0,93,0.00,,,0.00,0,Wunderground v.1.15,2013-02-12 07:18:00,
2013-02-12 02:23:00,36.1,34.3,29.64,WSW,257,6.0,6.0,93,0.00,,,0.00,0,Wunderground v.1.15,2013-02-12 07:23:00,
2013-02-12 02:28:00,36.0,33.9,29.65,WNW,292,1.0,10.0,92,0.00,,,0.00,0,Wunderground v.1.15,2013-02-12 07:28:00,
2013-02-12 02:33:00,35.9,33.8,29.64,SW,227,2.0,6.0,92,0.00,,,0.00,0,Wunderground v.1.15,2013-02-12 07:33:00,
2013-02-12 02:38:00,35.6,33.5,29.65,WSW,252,3.0,6.0,92,0.00,,,0.00,0,Wunderground v.1.15,2013-02-12 07:38:00,
2013-02-12 02:43:00,35.5,33.4,29.64,West,268,3.0,11.0,92,0.00,,,0.00,0,Wunderground v.1.15,2013-02-12 07:43:00,
2013-02-12 02:49:00,35.4,33.3,29.64,West,267,3.0,11.0,92,0.00,,,0.00,0,Wunderground v.1.15,2013-02-12 07:49:00,
2013-02-12 02:54:00,35.3,33.2,29.65,NNW,337,2.0,9.0,92,0.00,,,0.00,0,Wunderground v.1.15,2013-02-12 07:54:00,
2013-02-12 02:59:00,35.2,33.1,29.66,WNW,302,2.0,9.0,92,0.00,,,0.00,0,Wunderground v.1.15,2013-02-12 07:59:00,
2013-02-12 03:04:00,35.2,32.8,29.65,WNW,282,1.0,6.0,91,0.00,,,0.00,0,Wunderground v.1.15,2013-02-12 08:04:00,
2013-02-12 03:09:00,35.1,32.7,29.66,NW,304,4.0,7.0,91,0.00,,,0.00,0,Wunderground v.1.15,2013-02-12 08:09:00,
2013-02-12 03:14:00,35.1,32.7,29.66,West,271,3.0,5.0,91,0.00,,,0.00,0,Wunderground v.1.15,2013-02-12 08:14:00,
2013-02-12 03:19:00,35.0,32.4,29.66,West,277,4.0,15.0,90,0.00,,,0.00,0,Wunderground v.1.15,2013-02-12 08:19:00,
2013-02-12 03:24:00,35.1,32.2,29.65,WNW,287,2.0,8.0,89,0.00,,,0.00,0,Wunderground v.1.15,2013-02-12 08:24:00,
2013-02-12 03:29:00,35.1,31.9,29.65,West,274,1.0,10.0,88,0.00,,,0.00,0,Wunderground v.1.15,2013-02-12 08:29:00,
2013-02-12 03:34:00,35.1,31.6,29.65,WSW,240,4.0,7.0,87,0.00,,,0.00,0,Wunderground v.1.15,2013-02-12 08:34:00,
2013-02-12 03:39:00,35.2,31.4,29.65,WNW,292,2.0,7.0,86,0.00,,,0.00,0,Wunderground v.1.15,2013-02-12 08:39:00,
2013-02-12 03:44:00,35.2,31.4,29.65,WNW,282,3.0,8.0,86,0.00,,,0.00,0,Wunderground v.1.15,2013-02-12 08:44:00,
2013-02-12 03:49:00,35.2,31.1,29.65,NW,312,2.0,9.0,85,0.00,,,0.00,0,Wunderground v.1.15,2013-02-12 08:49:00,
2013-02-12 03:55:00,35.2,31.1,29.65,West,265,4.0,7.0,85,0.00,,,0.00,0,Wunderground v.1.15,2013-02-12 08:55:00,
2013-02-12 04:00:00,35.2,30.9,29.65,WNW,296,1.0,1.0,84,0.00,,,0.00,0,Wunderground v.1.15,2013-02-12 09:00:00,
2013-02-12 04:05:00,35.1,30.8,29.65,West,261,3.0,10.0,84,0.00,,,0.00,0,Wunderground v.1.15,2013-02-12 09:05:00,
2013-02-12 04:10:00,35.1,30.8,29.65,West,271,1.0,3.0,84,0.00,,,0.00,0,Wunderground v.1.15,2013-02-12 09:10:00,
2013-02-12 04:15:00,35.0,30.7,29.65,West,279,2.0,12.0,84,0.00,,,0.00,0,Wunderground v.1.15,2013-02-12 09:15:00,
2013-02-12 04:20:00,35.0,30.7,29.66,WNW,293,1.0,3.0,84,0.00,,,0.00,0,Wunderground v.1.15,2013-02-12 09:20:00,
2013-02-12 04:25:00,35.0,30.4,29.66,WNW,299,2.0,11.0,83,0.00,,,0.00,0,Wunderground v.1.15,2013-02-12 09:25:00,
2013-02-12 04:30:00,34.9,30.3,29.66,NW,311,2.0,5.0,83,0.00,,,0.00,0,Wunderground v.1.15,2013-02-12 09:30:00,
2013-02-12 04:35:00,34.9,30.3,29.66,WNW,293,3.0,7.0,83,0.00,,,0.00,0,Wunderground v.1.15,2013-02-12 09:35:00,
2013-02-12 04:40:00,34.8,30.2,29.66,WNW,293,3.0,3.0,83,0.00,,,0.00,0,Wunderground v.1.15,2013-02-12 09:40:00,
2013-02-12 04:45:00,34.8,30.2,29.66,WNW,302,3.0,4.0,83,0.00,,,0.00,0,Wunderground v.1.15,2013-02-12 09:45:00,
2013-02-12 04:50:00,34.8,30.2,29.66,West,265,0.0,3.0,83,0.00,,,0.00,0,Wunderground v.1.15,2013-02-12 09:50:00,
2013-02-12 04:55:00,34.7,30.1,29.67,WSW,245,1.0,3.0,83,0.00,,,0.00,0,Wunderground v.1.15,2013-02-12 09:55:00,
2013-02-12 05:00:00,34.7,30.1,29.66,West,281,4.0,4.0,83,0.00,,,0.00,0,Wunderground v.1.15,2013-02-12 10:00:00,
2013-02-12 05:05:00,34.6,30.0,29.67,WNW,288,2.0,6.0,83,0.00,,,0.00,0,Wunderground v.1.15,2013-02-12 10:05:00,
2013-02-12 05:10:00,34.6,30.0,29.66,WNW,294,0.0,4.0,83,0.00,,,0.00,0,Wunderground v.1.15,2013-02-12 10:10:00,
2013-02-12 05:15:00,34.6,30.0,29.66,WNW,286,0.0,4.0,83,0.00,,,0.00,0,Wunderground v.1.15,2013-02-12 10:15:00,
2013-02-12 05:20:00,34.6,30.0,29.67,WNW,286,0.0,2.0,83,0.00,,,0.00,0,Wunderground v.1.15,2013-02-12 10:20:00,
2013-02-12 05:26:00,34.6,30.0,29.66,NW,325,1.0,4.0,83,0.00,,,0.00,0,Wunderground v.1.15,2013-02-12 10:26:00,
2013-02-12 05:31:00,34.6,30.0,29.66,NW,325,0.0,2.0,83,0.00,,,0.00,0,Wunderground v.1.15,2013-02-12 10:31:00,
2013-02-12 05:36:00,34.6,30.3,29.66,NW,325,0.0,2.0,84,0.00,,,0.00,0,Wunderground v.1.15,2013-02-12 10:36:00,
2013-02-12 05:41:00,34.6,30.3,29.66,NNW,345,0.0,1.0,84,0.00,,,0.00,0,Wunderground v.1.15,2013-02-12 10:41:00,
2013-02-12 05:46:00,34.5,29.9,29.66,NNW,345,0.0,2.0,83,0.00,,,0.00,0,Wunderground v.1.15,2013-02-12 10:46:00,
2013-02-12 05:51:00,34.4,29.8,29.66,NNW,345,2.0,2.0,83,0.00,,,0.00,0,Wunderground v.1.15,2013-02-12 10:51:00,
2013-02-12 05:56:00,34.2,29.6,29.67,NW,323,2.0,3.0,83,0.00,,,0.00,0,Wunderground v.1.15,2013-02-12 10:56:00,
2013-02-12 06:01:00,34.1,29.5,29.67,WNW,286,1.0,2.0,83,0.00,,,0.00,0,Wunderground v.1.15,2013-02-12 11:01:00,
2013-02-12 06:06:00,34.0,29.4,29.68,WNW,286,0.0,2.0,83,0.00,,,0.00,0,Wunderground v.1.15,2013-02-12 11:06:00,
2013-02-12 06:11:00,33.8,29.2,29.68,WNW,286,0.0,2.0,83,0.00,,,0.00,0,Wunderground v.1.15,2013-02-12 11:11:00,
2013-02-12 06:16:00,33.6,29.0,29.68,WSW,257,0.0,5.0,83,0.00,,,0.00,0,Wunderground v.1.15,2013-02-12 11:16:00,
2013-02-12 06:21:00,33.5,28.9,29.68,WSW,257,0.0,2.0,83,0.00,,,0.00,0,Wunderground v.1.15,2013-02-12 11:21:00,
2013-02-12 06:26:00,33.3,29.0,29.68,West,266,5.0,5.0,84,0.00,,,0.00,0,Wunderground v.1.15,2013-02-12 11:26:00,
2013-02-12 06:31:00,33.2,28.9,29.68,West,272,2.0,5.0,84,0.00,,,0.00,0,Wunderground v.1.15,2013-02-12 11:31:00,
2013-02-12 06:36:00,33.1,28.8,29.68,WSW,256,0.0,6.0,84,0.00,,,0.00,0,Wunderground v.1.15,2013-02-12 11:36:00,
2013-02-12 06:41:00,33.1,28.8,29.68,West,274,1.0,4.0,84,0.00,,,0.00,0,Wunderground v.1.15,2013-02-12 11:41:00,
2013-02-12 06:46:00,33.0,28.7,29.68,West,281,3.0,5.0,84,0.00,,,0.00,0,Wunderground v.1.15,2013-02-12 11:46:00,
2013-02-12 06:51:00,33.0,28.7,29.68,West,278,1.0,3.0,84,0.00,,,0.00,5,Wunderground v.1.15,2013-02-12 11:51:00,
2013-02-12 06:56:00,32.9,28.9,29.68,WSW,255,0.0,5.0,85,0.00,,,0.00,9,Wunderground v.1.15,2013-02-12 11:56:00,
2013-02-12 07:01:00,33.0,29.0,29.69,West,277,2.0,9.0,85,0.00,,,0.00,16,Wunderground v.1.15,2013-02-12 12:01:00,
2013-02-12 07:06:00,33.0,29.0,29.69,West,269,2.0,9.0,85,0.00,,,0.00,16,Wunderground v.1.15,2013-02-12 12:06:00,
2013-02-12 07:11:00,33.1,29.1,29.69,WNW,300,2.0,7.0,85,0.00,,,0.00,18,Wunderground v.1.15,2013-02-12 12:11:00,
2013-02-12 07:16:00,33.3,29.3,29.69,WNW,300,0.0,7.0,85,0.00,,,0.00,19,Wunderground v.1.15,2013-02-12 12:16:00,
2013-02-12 07:21:00,33.5,29.5,29.69,WNW,295,0.0,1.0,85,0.00,,,0.00,28,Wunderground v.1.15,2013-02-12 12:21:00,
2013-02-12 07:26:00,33.7,30.0,29.69,WNW,295,0.0,1.0,86,0.00,,,0.00,25,Wunderground v.1.15,2013-02-12 12:26:00,
2013-02-12 07:31:00,33.9,30.2,29.69,WNW,295,0.0,0.0,86,0.00,,,0.00,21,Wunderground v.1.15,2013-02-12 12:31:00,
2013-02-12 07:36:00,34.0,30.3,29.70,WNW,295,0.0,0.0,86,0.00,,,0.00,18,Wunderground v.1.15,2013-02-12 12:36:00,
2013-02-12 07:41:00,34.2,30.4,29.70,WNW,295,0.0,0.0,86,0.00,,,0.00,19,Wunderground v.1.15,2013-02-12 12:41:00,
2013-02-12 07:46:00,34.3,30.5,29.70,WNW,295,0.0,0.0,86,0.00,,,0.00,19,Wunderground v.1.15,2013-02-12 12:46:00,
2013-02-12 07:51:00,34.5,30.7,29.70,WNW,295,0.0,0.0,86,0.00,,,0.00,21,Wunderground v.1.15,2013-02-12 12:51:00,
2013-02-12 07:56:00,34.6,30.8,29.70,WNW,295,0.0,0.0,86,0.00,,,0.00,25,Wunderground v.1.15,2013-02-12 12:56:00,
2013-02-12 08:02:00,34.7,30.9,29.70,WNW,295,0.0,0.0,86,0.00,,,0.00,32,Wunderground v.1.15,2013-02-12 13:02:00,
2013-02-12 08:07:00,34.8,30.8,29.70,WNW,295,0.0,1.0,85,0.00,,,0.00,39,Wunderground v.1.15,2013-02-12 13:07:00,
2013-02-12 08:12:00,34.9,31.1,29.70,WNW,295,0.0,0.0,86,0.00,,,0.00,33,Wunderground v.1.15,2013-02-12 13:12:00,
2013-02-12 08:18:00,35.0,31.2,29.70,WNW,295,0.0,1.0,86,0.00,,,0.00,51,Wunderground v.1.15,2013-02-12 13:18:00,
2013-02-12 08:23:00,35.2,31.1,29.70,WNW,294,0.0,1.0,85,0.00,,,0.00,111,Wunderground v.1.15,2013-02-12 13:23:00,
2013-02-12 08:28:00,35.3,31.2,29.70,WNW,294,2.0,3.0,85,0.00,,,0.00,58,Wunderground v.1.15,2013-02-12 13:28:00,
2013-02-12 08:33:00,35.5,31.4,29.70,WNW,295,0.0,0.0,85,0.00,,,0.00,86,Wunderground v.1.15,2013-02-12 13:33:00,
2013-02-12 08:38:00,35.7,31.6,29.70,WNW,294,0.0,1.0,85,0.00,,,0.00,74,Wunderground v.1.15,2013-02-12 13:38:00,
2013-02-12 08:43:00,35.9,31.8,29.70,WNW,295,1.0,2.0,85,0.00,,,0.00,60,Wunderground v.1.15,2013-02-12 13:43:00,
2013-02-12 08:48:00,36.2,31.8,29.71,WNW,294,0.0,2.0,84,0.00,,,0.00,72,Wunderground v.1.15,2013-02-12 13:48:00,
2013-02-12 08:53:00,36.5,32.1,29.71,West,281,1.0,3.0,84,0.00,,,0.00,72,Wunderground v.1.15,2013-02-12 13:53:00,
2013-02-12 08:58:00,36.7,32.0,29.71,West,259,1.0,3.0,83,0.00,,,0.00,62,Wunderground v.1.15,2013-02-12 13:58:00,
2013-02-12 09:04:00,37.0,32.3,29.71,West,259,0.0,2.0,83,0.00,,,0.00,69,Wunderground v.1.15,2013-02-12 14:04:00,
2013-02-12 09:09:00,37.1,32.1,29.71,West,259,3.0,4.0,82,0.00,,,0.00,77,Wunderground v.1.15,2013-02-12 14:09:00,
2013-02-12 09:14:00,37.4,32.1,29.72,West,270,0.0,7.0,81,0.00,,,0.00,70,Wunderground v.1.15,2013-02-12 14:14:00,
2013-02-12 09:18:00,37.6,32.0,29.72,WNW,287,0.0,7.0,80,0.00,,,0.00,74,Wunderground v.1.15,2013-02-12 14:18:00,
2013-02-12 09:24:00,37.9,32.0,29.71,North,5,5.0,10.0,79,0.00,,,0.00,100,Wunderground v.1.15,2013-02-12 14:24:00,
2013-02-12 09:29:00,38.3,31.7,29.71,West,259,1.0,10.0,77,0.00,,,0.00,142,Wunderground v.1.15,2013-02-12 14:29:00,
2013-02-12 09:34:00,38.6,31.7,29.71,WSW,243,4.0,9.0,76,0.00,,,0.00,111,Wunderground v.1.15,2013-02-12 14:34:00,
2013-02-12 09:39:00,38.9,31.6,29.71,NW,311,2.0,9.0,75,0.00,,,0.00,109,Wunderground v.1.15,2013-02-12 14:39:00,
2013-02-12 09:44:00,39.2,31.6,29.71,WSW,256,4.0,9.0,74,0.00,,,0.00,125,Wunderground v.1.15,2013-02-12 14:44:00,
2013-02-12 09:49:00,39.5,31.6,29.71,West,271,1.0,10.0,73,0.00,,,0.00,63,Wunderground v.1.15,2013-02-12 14:49:00,
2013-02-12 09:54:00,39.7,31.8,29.71,WNW,292,3.0,4.0,73,0.00,,,0.00,113,Wunderground v.1.15,2013-02-12 14:54:00,
2013-02-12 09:59:00,39.9,31.6,29.71,West,264,9.0,10.0,72,0.00,,,0.00,54,Wunderground v.1.15,2013-02-12 14:59:00,
2013-02-12 10:04:00,40.1,31.4,29.71,NNW,333,9.0,10.0,71,0.00,,,0.00,97,Wunderground v.1.15,2013-02-12 15:04:00,
2013-02-12 10:09:00,40.3,31.3,29.71,West,260,1.0,10.0,70,0.00,,,0.00,127,Wunderground v.1.15,2013-02-12 15:09:00,
2013-02-12 10:14:00,40.6,31.6,29.71,WSW,251,3.0,6.0,70,0.00,,,0.00,120,Wunderground v.1.15,2013-02-12 15:14:00,
2013-02-12 10:19:00,41.1,31.3,29.71,West,265,10.0,13.0,68,0.00,,,0.00,181,Wunderground v.1.15,2013-02-12 15:19:00,
2013-02-12 10:24:00,41.4,31.3,29.72,WSW,240,1.0,16.0,67,0.00,,,0.00,172,Wunderground v.1.15,2013-02-12 15:24:00,
2013-02-12 10:29:00,41.5,31.4,29.72,West,267,7.0,16.0,67,0.00,,,0.00,104,Wunderground v.1.15,2013-02-12 15:29:00,
2013-02-12 10:34:00,41.5,31.0,29.72,West,273,4.0,9.0,66,0.00,,,0.00,149,Wunderground v.1.15,2013-02-12 15:34:00,
2013-02-12 10:39:00,41.5,31.0,29.72,WSW,254,9.0,10.0,66,0.00,,,0.00,127,Wunderground v.1.15,2013-02-12 15:39:00,
2013-02-12 10:44:00,41.5,30.6,29.72,West,270,3.0,10.0,65,0.00,,,0.00,141,Wunderground v.1.15,2013-02-12 15:44:00,
2013-02-12 10:49:00,41.5,30.6,29.72,SE,130,2.0,10.0,65,0.00,,,0.00,172,Wunderground v.1.15,2013-02-12 15:49:00,
2013-02-12 10:54:00,41.6,31.1,29.72,WNW,284,5.0,7.0,66,0.00,,,0.00,155,Wunderground v.1.15,2013-02-12 15:54:00,
2013-02-12 10:59:00,41.7,30.4,29.72,West,273,4.0,11.0,64,0.00,,,0.00,130,Wunderground v.1.15,2013-02-12 15:59:00,
2013-02-12 11:04:00,41.8,30.5,29.73,West,270,4.0,17.0,64,0.00,,,0.00,139,Wunderground v.1.15,2013-02-12 16:04:00,
2013-02-12 11:09:00,41.8,30.9,29.72,WNW,290,4.0,17.0,65,0.00,,,0.00,151,Wunderground v.1.15,2013-02-12 16:09:00,
2013-02-12 11:14:00,41.8,30.5,29.72,West,263,4.0,12.0,64,0.00,,,0.00,185,Wunderground v.1.15,2013-02-12 16:14:00,
2013-02-12 11:19:00,41.8,30.1,29.72,NW,312,2.0,15.0,63,0.00,,,0.00,163,Wunderground v.1.15,2013-02-12 16:19:00,
2013-02-12 11:24:00,42.2,30.9,29.72,WSW,248,7.0,15.0,64,0.00,,,0.00,193,Wunderground v.1.15,2013-02-12 16:24:00,
2013-02-12 11:29:00,42.7,31.0,29.72,West,268,3.0,15.0,63,0.00,,,0.00,185,Wunderground v.1.15,2013-02-12 16:29:00,
2013-02-12 11:34:00,43.2,30.6,29.72,West,271,4.0,14.0,61,0.00,,,0.00,193,Wunderground v.1.15,2013-02-12 16:34:00,
2013-02-12 11:40:00,43.3,30.3,29.72,West,266,7.0,7.0,60,0.00,,,0.00,144,Wunderground v.1.15,2013-02-12 16:40:00,
2013-02-12 11:45:00,43.2,31.1,29.72,WSW,255,1.0,7.0,62,0.00,,,0.00,178,Wunderground v.1.15,2013-02-12 16:45:00,
2013-02-12 11:50:00,43.0,30.5,29.72,WNW,291,4.0,5.0,61,0.00,,,0.00,156,Wunderground v.1.15,2013-02-12 16:50:00,
2013-02-12 11:55:00,42.8,30.3,29.72,WSW,243,5.0,19.0,61,0.00,,,0.00,185,Wunderground v.1.15,2013-02-12 16:55:00,
2013-02-12 12:00:00,42.7,30.2,29.72,WNW,290,6.0,10.0,61,0.00,,,0.00,179,Wunderground v.1.15,2013-02-12 17:00:00,
2013-02-12 12:05:00,42.6,30.1,29.72,West,261,5.0,13.0,61,0.00,,,0.00,113,Wunderground v.1.15,2013-02-12 17:05:00,
2013-02-12 12:10:00,42.6,30.1,29.73,West,262,5.0,5.0,61,0.00,,,0.00,132,Wunderground v.1.15,2013-02-12 17:10:00,
2013-02-12 12:15:00,42.7,30.6,29.72,NW,309,6.0,11.0,62,0.00,,,0.00,172,Wunderground v.1.15,2013-02-12 17:15:00,
2013-02-12 12:20:00,42.6,30.1,29.73,WNW,303,6.0,6.0,61,0.00,,,0.00,183,Wunderground v.1.15,2013-02-12 17:20:00,
2013-02-12 12:25:00,42.7,30.2,29.73,West,270,4.0,10.0,61,0.00,,,0.00,179,Wunderground v.1.15,2013-02-12 17:25:00,
2013-02-12 12:30:00,42.8,31.1,29.73,NW,324,11.0,20.0,63,0.00,,,0.00,167,Wunderground v.1.15,2013-02-12 17:30:00,
2013-02-12 12:35:00,42.8,30.3,29.73,WSW,252,10.0,20.0,61,0.00,,,0.00,178,Wunderground v.1.15,2013-02-12 17:35:00,
2013-02-12 12:40:00,42.9,30.4,29.73,WSW,254,4.0,8.0,61,0.00,,,0.00,156,Wunderground v.1.15,2013-02-12 17:40:00,
2013-02-12 12:45:00,42.9,30.4,29.73,WSW,248,11.0,11.0,61,0.00,,,0.00,165,Wunderground v.1.15,2013-02-12 17:45:00,
2013-02-12 12:50:00,42.9,30.4,29.73,South,182,12.0,12.0,61,0.00,,,0.00,171,Wunderground v.1.15,2013-02-12 17:50:00,
2013-02-12 12:55:00,42.9,30.8,29.72,West,278,4.0,13.0,62,0.00,,,0.00,163,Wunderground v.1.15,2013-02-12 17:55:00,
2013-02-12 13:00:00,42.9,30.4,29.73,WNW,302,11.0,11.0,61,0.00,,,0.00,185,Wunderground v.1.15,2013-02-12 18:00:00,
2013-02-12 13:05:00,42.9,30.8,29.73,West,265,7.0,14.0,62,0.00,,,0.00,158,Wunderground v.1.15,2013-02-12 18:05:00,
2013-02-12 13:10:00,42.9,30.4,29.73,SSW,192,7.0,7.0,61,0.00,,,0.00,153,Wunderground v.1.15,2013-02-12 18:10:00,
2013-02-12 13:15:00,42.8,30.3,29.73,NW,312,3.0,15.0,61,0.00,,,0.00,169,Wunderground v.1.15,2013-02-12 18:15:00,
2013-02-12 13:20:00,42.9,30.8,29.73,West,276,2.0,7.0,62,0.00,,,0.00,149,Wunderground v.1.15,2013-02-12 18:20:00,
2013-02-12 13:25:00,42.8,30.3,29.73,SW,223,3.0,15.0,61,0.00,,,0.00,155,Wunderground v.1.15,2013-02-12 18:25:00,
2013-02-12 13:30:00,42.9,31.2,29.73,West,269,0.0,5.0,63,0.00,,,0.00,183,Wunderground v.1.15,2013-02-12 18:30:00,
2013-02-12 13:35:00,42.9,30.8,29.73,WSW,247,4.0,14.0,62,0.00,,,0.00,104,Wunderground v.1.15,2013-02-12 18:35:00,
2013-02-12 13:40:00,42.8,30.7,29.74,West,264,7.0,9.0,62,0.00,,,0.00,144,Wunderground v.1.15,2013-02-12 18:40:00,
2013-02-12 13:45:00,42.7,30.6,29.74,West,280,5.0,12.0,62,0.00,,,0.00,88,Wunderground v.1.15,2013-02-12 18:45:00,
2013-02-12 13:50:00,42.5,30.4,29.74,West,261,5.0,6.0,62,0.00,,,0.00,151,Wunderground v.1.15,2013-02-12 18:50:00,
2013-02-12 13:55:00,42.4,30.3,29.74,West,280,2.0,12.0,62,0.00,,,0.00,146,Wunderground v.1.15,2013-02-12 18:55:00,
2013-02-12 14:01:00,42.3,30.6,29.74,West,277,6.0,10.0,63,0.00,,,0.00,123,Wunderground v.1.15,2013-02-12 19:01:00,
2013-02-12 14:06:00,42.2,30.5,29.74,NW,313,3.0,10.0,63,0.00,,,0.00,132,Wunderground v.1.15,2013-02-12 19:06:00,
2013-02-12 14:11:00,42.1,30.4,29.74,WSW,252,6.0,6.0,63,0.00,,,0.00,111,Wunderground v.1.15,2013-02-12 19:11:00,
2013-02-12 14:16:00,42.0,30.3,29.75,WNW,282,3.0,14.0,63,0.00,,,0.00,95,Wunderground v.1.15,2013-02-12 19:16:00,
2013-02-12 14:21:00,41.9,30.2,29.74,West,281,5.0,7.0,63,0.00,,,0.00,116,Wunderground v.1.15,2013-02-12 19:21:00,
2013-02-12 14:26:00,41.9,30.6,29.75,West,263,5.0,13.0,64,0.00,,,0.00,158,Wunderground v.1.15,2013-02-12 19:26:00,
2013-02-12 14:31:00,41.9,30.6,29.75,West,265,7.0,7.0,64,0.00,,,0.00,123,Wunderground v.1.15,2013-02-12 19:31:00,
2013-02-12 14:36:00,41.9,30.6,29.75,WSW,241,10.0,13.0,64,0.00,,,0.00,109,Wunderground v.1.15,2013-02-12 19:36:00,
2013-02-12 14:41:00,41.8,30.1,29.75,NW,313,6.0,10.0,63,0.00,,,0.00,67,Wunderground v.1.15,2013-02-12 19:41:00,
2013-02-12 14:46:00,41.6,30.3,29.76,WNW,290,5.0,11.0,64,0.00,,,0.00,44,Wunderground v.1.15,2013-02-12 19:46:00,
2013-02-12 14:51:00,41.5,30.6,29.76,SW,234,1.0,11.0,65,0.00,,,0.00,47,Wunderground v.1.15,2013-02-12 19:51:00,
2013-02-12 14:56:00,41.3,30.4,29.76,SW,232,5.0,13.0,65,0.00,,,0.00,35,Wunderground v.1.15,2013-02-12 19:56:00,
2013-02-12 15:01:00,41.1,30.6,29.77,West,267,6.0,10.0,66,0.00,,,0.00,42,Wunderground v.1.15,2013-02-12 20:01:00,
2013-02-12 15:06:00,40.8,30.3,29.77,WNW,283,2.0,13.0,66,0.00,,,0.00,40,Wunderground v.1.15,2013-02-12 20:06:00,
2013-02-12 15:11:00,40.6,30.1,29.77,WNW,285,5.0,13.0,66,0.00,,,0.00,46,Wunderground v.1.15,2013-02-12 20:11:00,
2013-02-12 15:16:00,40.5,30.0,29.76,WNW,294,5.0,13.0,66,0.00,,,0.00,44,Wunderground v.1.15,2013-02-12 20:16:00,
2013-02-12 15:21:00,40.4,30.3,29.76,West,259,3.0,9.0,67,0.00,,,0.00,67,Wunderground v.1.15,2013-02-12 20:21:00,
2013-02-12 15:26:00,40.4,30.3,29.77,NNW,340,6.0,12.0,67,0.00,,,0.00,60,Wunderground v.1.15,2013-02-12 20:26:00,
2013-02-12 15:31:00,40.3,29.8,29.77,SW,236,10.0,10.0,66,0.00,,,0.00,77,Wunderground v.1.15,2013-02-12 20:31:00,
2013-02-12 15:36:00,40.2,30.1,29.77,West,281,3.0,10.0,67,0.00,,,0.00,51,Wunderground v.1.15,2013-02-12 20:36:00,
2013-02-12 15:41:00,40.2,30.1,29.77,West,268,3.0,6.0,67,0.00,,,0.00,35,Wunderground v.1.15,2013-02-12 20:41:00,
2013-02-12 15:46:00,40.2,30.1,29.77,WNW,282,3.0,12.0,67,0.00,,,0.00,30,Wunderground v.1.15,2013-02-12 20:46:00,
2013-02-12 15:51:00,40.1,30.4,29.77,West,267,6.0,10.0,68,0.00,,,0.00,30,Wunderground v.1.15,2013-02-12 20:51:00,
2013-02-12 15:56:00,40.0,30.3,29.77,SW,232,3.0,13.0,68,0.00,,,0.00,26,Wunderground v.1.15,2013-02-12 20:56:00,
2013-02-12 16:01:00,39.8,30.1,29.76,WSW,250,6.0,15.0,68,0.00,,,0.00,30,Wunderground v.1.15,2013-02-12 21:01:00,
2013-02-12 16:06:00,39.7,30.0,29.76,West,273,4.0,16.0,68,0.00,,,0.00,26,Wunderground v.1.15,2013-02-12 21:06:00,
2013-02-12 16:11:00,39.6,29.9,29.76,West,278,9.0,20.0,68,0.00,,,0.00,21,Wunderground v.1.15,2013-02-12 21:11:00,
2013-02-12 16:16:00,39.5,29.8,29.76,West,273,3.0,20.0,68,0.00,,,0.00,26,Wunderground v.1.15,2013-02-12 21:16:00,
2013-02-12 16:21:00,39.5,30.2,29.76,WNW,292,10.0,15.0,69,0.00,,,0.00,28,Wunderground v.1.15,2013-02-12 21:21:00,
2013-02-12 16:27:00,39.3,30.0,29.76,WSW,252,8.0,15.0,69,0.00,,,0.00,32,Wunderground v.1.15,2013-02-12 21:27:00,
2013-02-12 16:32:00,39.3,30.0,29.76,WSW,248,4.0,8.0,69,0.00,,,0.00,32,Wunderground v.1.15,2013-02-12 21:32:00,
2013-02-12 16:37:00,39.2,29.9,29.77,WNW,283,3.0,14.0,69,0.00,,,0.00,28,Wunderground v.1.15,2013-02-12 21:37:00,
2013-02-12 16:42:00,39.1,29.8,29.77,West,265,6.0,6.0,69,0.00,,,0.00,21,Wunderground v.1.15,2013-02-12 21:42:00,
2013-02-12 16:47:00,39.0,29.7,29.77,WSW,250,4.0,8.0,69,0.00,,,0.00,16,Wunderground v.1.15,2013-02-12 21:47:00,
2013-02-12 16:52:00,38.9,29.9,29.77,WSW,238,3.0,10.0,70,0.00,,,0.00,12,Wunderground v.1.15,2013-02-12 21:52:00,
2013-02-12 16:57:00,38.7,29.8,29.76,WNW,295,12.0,12.0,70,0.00,,,0.00,7,Wunderground v.1.15,2013-02-12 21:57:00,
2013-02-12 17:02:00,38.6,29.7,29.76,West,264,3.0,7.0,70,0.00,,,0.00,5,Wunderground v.1.15,2013-02-12 22:02:00,
2013-02-12 17:07:00,38.5,29.9,29.77,West,281,3.0,7.0,71,0.00,,,0.00,0,Wunderground v.1.15,2013-02-12 22:07:00,
2013-02-12 17:12:00,38.3,29.7,29.77,WSW,253,5.0,10.0,71,0.00,,,0.00,0,Wunderground v.1.15,2013-02-12 22:12:00,
2013-02-12 17:17:00,38.2,29.6,29.77,West,281,5.0,10.0,71,0.00,,,0.00,0,Wunderground v.1.15,2013-02-12 22:17:00,
2013-02-12 17:23:00,38.1,29.9,29.77,WNW,292,4.0,5.0,72,0.00,,,0.00,0,Wunderground v.1.15,2013-02-12 22:23:00,
2013-02-12 17:28:00,37.9,29.7,29.76,West,267,6.0,11.0,72,0.00,,,0.00,0,Wunderground v.1.15,2013-02-12 22:28:00,
2013-02-12 17:33:00,37.7,29.5,29.75,West,269,4.0,11.0,72,0.00,,,0.00,0,Wunderground v.1.15,2013-02-12 22:33:00,
2013-02-12 17:38:00,37.6,29.4,29.76,West,271,2.0,12.0,72,0.00,,,0.00,0,Wunderground v.1.15,2013-02-12 22:38:00,
2013-02-12 17:43:00,37.5,29.6,29.77,West,265,0.0,5.0,73,0.00,,,0.00,0,Wunderground v.1.15,2013-02-12 22:43:00,
2013-02-12 17:48:00,37.4,29.5,29.77,WNW,302,3.0,5.0,73,0.00,,,0.00,0,Wunderground v.1.15,2013-02-12 22:48:00,
2013-02-12 17:53:00,37.3,29.4,29.78,WNW,282,4.0,9.0,73,0.00,,,0.00,0,Wunderground v.1.15,2013-02-12 22:53:00,
2013-02-12 17:58:00,37.2,29.3,29.77,West,269,2.0,9.0,73,0.00,,,0.00,0,Wunderground v.1.15,2013-02-12 22:58:00,
2013-02-12 18:03:00,37.1,29.6,29.77,WNW,288,3.0,9.0,74,0.00,,,0.00,0,Wunderground v.1.15,2013-02-12 23:03:00,
2013-02-12 18:08:00,37.1,29.6,29.76,West,265,2.0,9.0,74,0.00,,,0.00,0,Wunderground v.1.15,2013-02-12 23:08:00,
2013-02-12 18:13:00,37.0,29.5,29.77,WSW,257,4.0,12.0,74,0.00,,,0.00,0,Wunderground v.1.15,2013-02-12 23:13:00,
2013-02-12 18:18:00,36.9,29.4,29.77,West,267,1.0,12.0,74,0.00,,,0.00,0,Wunderground v.1.15,2013-02-12 23:18:00,
2013-02-12 18:23:00,36.8,29.3,29.78,West,271,1.0,5.0,74,0.00,,,0.00,0,Wunderground v.1.15,2013-02-12 23:23:00,
2013-02-12 18:28:00,36.7,29.5,29.79,SSW,213,1.0,5.0,75,0.00,,,0.00,0,Wunderground v.1.15,2013-02-12 23:28:00,
2013-02-12 18:33:00,36.6,29.4,29.79,West,270,4.0,6.0,75,0.00,,,0.00,0,Wunderground v.1.15,2013-02-12 23:33:00,
2013-02-12 18:38:00,36.5,29.3,29.79,West,269,2.0,6.0,75,0.00,,,0.00,0,Wunderground v.1.15,2013-02-12 23:38:00,
2013-02-12 18:44:00,36.4,29.2,29.80,West,269,1.0,3.0,75,0.00,,,0.00,0,Wunderground v.1.15,2013-02-12 23:44:00,
2013-02-12 18:49:00,36.4,29.2,29.81,West,267,3.0,6.0,75,0.00,,,0.00,0,Wunderground v.1.15,2013-02-12 23:49:00,
2013-02-12 18:54:00,36.3,29.5,29.81,WSW,248,4.0,9.0,76,0.00,,,0.00,0,Wunderground v.1.15,2013-02-12 23:54:00,
2013-02-12 18:59:00,36.2,29.4,29.81,WSW,246,3.0,9.0,76,0.00,,,0.00,0,Wunderground v.1.15,2013-02-12 23:59:00,
2013-02-12 19:04:00,36.3,29.1,29.82,WNW,293,5.0,13.0,75,0.00,,,0.00,0,Wunderground v.1.15,2013-02-13 00:04:00,
2013-02-12 19:09:00,36.3,29.5,29.83,West,271,7.0,13.0,76,0.00,,,0.00,0,Wunderground v.1.15,2013-02-13 00:09:00,
2013-02-12 19:14:00,36.4,29.2,29.83,West,265,0.0,9.0,75,0.00,,,0.00,0,Wunderground v.1.15,2013-02-13 00:14:00,
2013-02-12 19:19:00,36.4,29.2,29.83,SSW,202,4.0,10.0,75,0.00,,,0.00,0,Wunderground v.1.15,2013-02-13 00:19:00,
2013-02-12 19:24:00,36.5,29.7,29.84,West,270,0.0,7.0,76,0.00,,,0.00,0,Wunderground v.1.15,2013-02-13 00:24:00,
2013-02-12 19:29:00,36.5,29.7,29.85,West,271,3.0,7.0,76,0.00,,,0.00,0,Wunderground v.1.15,2013-02-13 00:29:00,
2013-02-12 19:34:00,36.5,29.7,29.85,West,264,1.0,4.0,76,0.00,,,0.00,0,Wunderground v.1.15,2013-02-13 00:34:00,
2013-02-12 19:39:00,36.5,29.3,29.86,West,267,4.0,10.0,75,0.00,,,0.00,0,Wunderground v.1.15,2013-02-13 00:39:00,
2013-02-12 19:44:00,36.5,29.7,29.86,West,278,2.0,4.0,76,0.00,,,0.00,0,Wunderground v.1.15,2013-02-13 00:44:00,
2013-02-12 19:50:00,36.5,29.7,29.87,SW,236,3.0,3.0,76,0.00,,,0.00,0,Wunderground v.1.15,2013-02-13 00:50:00,
2013-02-12 19:55:00,36.4,29.2,29.87,WSW,256,7.0,8.0,75,0.00,,,0.00,0,Wunderground v.1.15,2013-02-13 00:55:00,
2013-02-12 20:00:00,36.4,29.2,29.88,WSW,239,5.0,5.0,75,0.00,,,0.00,0,Wunderground v.1.15,2013-02-13 01:00:00,
2013-02-12 20:05:00,36.4,29.2,29.89,West,267,4.0,10.0,75,0.00,,,0.00,0,Wunderground v.1.15,2013-02-13 01:05:00,
2013-02-12 20:10:00,36.4,29.2,29.89,South,191,9.0,10.0,75,0.00,,,0.00,0,Wunderground v.1.15,2013-02-13 01:10:00,
2013-02-12 20:15:00,36.4,29.2,29.89,West,264,5.0,10.0,75,0.00,,,0.00,0,Wunderground v.1.15,2013-02-13 01:15:00,
2013-02-12 20:20:00,36.4,29.2,29.89,WSW,246,4.0,12.0,75,0.00,,,0.00,0,Wunderground v.1.15,2013-02-13 01:20:00,
2013-02-12 20:25:00,36.4,29.2,29.89,SSW,207,4.0,12.0,75,0.00,,,0.00,0,Wunderground v.1.15,2013-02-13 01:25:00,
2013-02-12 20:30:00,36.4,28.9,29.88,West,268,8.0,10.0,74,0.00,,,0.00,0,Wunderground v.1.15,2013-02-13 01:30:00,
2013-02-12 20:35:00,36.4,28.9,29.88,WSW,246,2.0,10.0,74,0.00,,,0.00,0,Wunderground v.1.15,2013-02-13 01:35:00,
2013-02-12 20:40:00,36.3,28.8,29.89,West,271,5.0,9.0,74,0.00,,,0.00,0,Wunderground v.1.15,2013-02-13 01:40:00,
2013-02-12 20:46:00,36.2,29.0,29.89,WSW,245,6.0,13.0,75,0.00,,,0.00,0,Wunderground v.1.15,2013-02-13 01:46:00,
2013-02-12 20:51:00,36.2,28.7,29.89,West,265,7.0,7.0,74,0.00,,,0.00,0,Wunderground v.1.15,2013-02-13 01:51:00,
2013-02-12 20:56:00,36.2,28.7,29.88,WSW,250,2.0,10.0,74,0.00,,,0.00,0,Wunderground v.1.15,2013-02-13 01:56:00,
2013-02-12 21:01:00,36.1,28.6,29.88,WSW,255,9.0,11.0,74,0.00,,,0.00,0,Wunderground v.1.15,2013-02-13 02:01:00,
2013-02-12 21:06:00,36.0,28.5,29.87,West,265,4.0,11.0,74,0.00,,,0.00,0,Wunderground v.1.15,2013-02-13 02:06:00,
2013-02-12 21:11:00,35.9,28.1,29.86,West,270,4.0,5.0,73,0.00,,,0.00,0,Wunderground v.1.15,2013-02-13 02:11:00,
2013-02-12 21:16:00,35.9,28.1,29.85,WNW,290,1.0,7.0,73,0.00,,,0.00,0,Wunderground v.1.15,2013-02-13 02:16:00,
2013-02-12 21:21:00,35.8,28.0,29.85,WSW,246,0.0,5.0,73,0.00,,,0.00,0,Wunderground v.1.15,2013-02-13 02:21:00,
2013-02-12 21:26:00,35.7,27.9,29.85,WNW,296,6.0,6.0,73,0.00,,,0.00,0,Wunderground v.1.15,2013-02-13 02:26:00,
2013-02-12 21:31:00,35.5,27.7,29.85,SW,236,3.0,4.0,73,0.00,,,0.00,0,Wunderground v.1.15,2013-02-13 02:31:00,
2013-02-12 21:36:00,35.4,27.6,29.85,West,275,1.0,5.0,73,0.00,,,0.00,0,Wunderground v.1.15,2013-02-13 02:36:00,
2013-02-12 21:42:00,35.3,27.5,29.85,WSW,257,1.0,5.0,73,0.00,,,0.00,0,Wunderground v.1.15,2013-02-13 02:42:00,
2013-02-12 21:47:00,35.2,27.4,29.85,West,267,1.0,7.0,73,0.00,,,0.00,0,Wunderground v.1.15,2013-02-13 02:47:00,
2013-02-12 21:52:00,35.1,27.3,29.85,WNW,292,2.0,3.0,73,0.00,,,0.00,0,Wunderground v.1.15,2013-02-13 02:52:00,
2013-02-12 21:57:00,35.0,27.2,29.85,West,272,2.0,5.0,73,0.00,,,0.00,0,Wunderground v.1.15,2013-02-13 02:57:00,
2013-02-12 22:02:00,34.9,27.1,29.85,WNW,282,2.0,6.0,73,0.00,,,0.00,0,Wunderground v.1.15,2013-02-13 03:02:00,
2013-02-12 22:07:00,34.8,27.4,29.85,WNW,288,2.0,7.0,74,0.00,,,0.00,0,Wunderground v.1.15,2013-02-13 03:07:00,
2013-02-12 22:12:00,34.7,27.3,29.85,WNW,284,2.0,3.0,74,0.00,,,0.00,0,Wunderground v.1.15,2013-02-13 03:12:00,
2013-02-12 22:17:00,34.5,27.1,29.85,West,274,1.0,6.0,74,0.00,,,0.00,0,Wunderground v.1.15,2013-02-13 03:17:00,
2013-02-12 22:22:00,34.4,27.0,29.85,West,274,3.0,3.0,74,0.00,,,0.00,0,Wunderground v.1.15,2013-02-13 03:22:00,
2013-02-12 22:27:00,34.1,27.0,29.84,West,274,1.0,3.0,75,0.00,,,0.00,0,Wunderground v.1.15,2013-02-13 03:27:00,
2013-02-12 22:32:00,33.8,26.7,29.85,West,274,1.0,1.0,75,0.00,,,0.00,0,Wunderground v.1.15,2013-02-13 03:32:00,
2013-02-12 22:38:00,33.7,26.6,29.84,West,274,0.0,3.0,75,0.00,,,0.00,0,Wunderground v.1.15,2013-02-13 03:38:00,
2013-02-12 22:43:00,33.4,26.6,29.83,West,274,0.0,3.0,76,0.00,,,0.00,0,Wunderground v.1.15,2013-02-13 03:43:00,
2013-02-12 22:48:00,33.2,26.5,29.83,WSW,238,1.0,4.0,76,0.00,,,0.00,0,Wunderground v.1.15,2013-02-13 03:48:00,
2013-02-12 22:53:00,33.0,26.6,29.83,WSW,238,0.0,2.0,77,0.00,,,0.00,0,Wunderground v.1.15,2013-02-13 03:53:00,
2013-02-12 22:58:00,32.8,26.4,29.83,WSW,257,1.0,3.0,77,0.00,,,0.00,0,Wunderground v.1.15,2013-02-13 03:58:00,
2013-02-12 23:03:00,32.5,26.1,29.83,WNW,284,1.0,4.0,77,0.00,,,0.00,0,Wunderground v.1.15,2013-02-13 04:03:00,
2013-02-12 23:08:00,32.4,26.0,29.83,WNW,284,2.0,4.0,77,0.00,,,0.00,0,Wunderground v.1.15,2013-02-13 04:08:00,
2013-02-12 23:13:00,32.2,25.8,29.83,WNW,284,0.0,3.0,77,0.00,,,0.00,0,Wunderground v.1.15,2013-02-13 04:13:00,
2013-02-12 23:18:00,32.0,25.9,29.84,WNW,284,1.0,3.0,78,0.00,,,0.00,0,Wunderground v.1.15,2013-02-13 04:18:00,
2013-02-12 23:23:00,31.9,25.8,29.84,WNW,284,0.0,2.0,78,0.00,,,0.00,0,Wunderground v.1.15,2013-02-13 04:23:00,
2013-02-12 23:28:00,31.8,25.7,29.84,West,280,2.0,3.0,78,0.00,,,0.00,0,Wunderground v.1.15,2013-02-13 04:28:00,
2013-02-12 23:33:00,31.7,25.6,29.84,WSW,252,0.0,5.0,78,0.00,,,0.00,0,Wunderground v.1.15,2013-02-13 04:33:00,
2013-02-12 23:38:00,31.6,25.5,29.83,WSW,252,0.0,5.0,78,0.00,,,0.00,0,Wunderground v.1.15,2013-02-13 04:38:00,
2013-02-12 23:43:00,31.5,25.7,29.83,WSW,253,1.0,3.0,79,0.00,,,0.00,0,Wunderground v.1.15,2013-02-13 04:43:00,
2013-02-12 23:48:00,31.4,25.6,29.84,WSW,253,1.0,3.0,79,0.00,,,0.00,0,Wunderground v.1.15,2013-02-13 04:48:00,
2013-02-12 23:53:00,31.3,25.5,29.84,WSW,253,2.0,2.0,79,0.00,,,0.00,0,Wunderground v.1.15,2013-02-13 04:53:00,
2013-02-12 23:59:00,31.2,25.4,29.84,WSW,253,0.0,3.0,79,0.00,,,0.00,0,Wunderground v.1.15,2013-02-13 04:59:00,